Other Surface Observations
Issued by NWS Charleston, SC

Home | Current Version | Previous Version | Text Only | Print | Product List | Glossary On
Versions: 1 2 3 4 5 6 7 8 9 10 11 12 13 14 15 16 17 18 19 20 21 22 23 24 25 26 27 28 29 30 31 32 33 34 35 36 37 38 39 40 41 42 43 44 45 46 47 48 49 50
000
SXUS52 KCHS 270127
OSOCHS

MARINE OBSERVATIONS
NATIONAL WEATHER SERVICE CHARLESTON SC
900 PM EDT WED APR 26 2017

...DOWNTOWN CHARLESTON AND HARBOR...

CITY           SKY/WX    TMP DP  RH WIND       PRES   REMARKS
WATERFRONT PRK   N/A     73  63  70 S10       29.84R

...LAKE MOULTRIE...

CITY           SKY/WX    TMP DP  RH WIND       PRES   REMARKS
PINOPOLIS        N/A     73  57  56 VRB3      29.76S

...LAKE AND SUPPLEMENTAL COASTAL OBSERVATIONS...

STATION/POSITION TIME  TEMP    WIND        PRES    WAVE   SWELL
                       AIR SEA DIR/SP/G            HT/PER HT/PER/DIR
                 (UTC) (F)     (DEG/KT/KT) (MB)    (FT/S) (FT/S/D)
FORT PULASKI     0100   72 74  190/  5/  9 1011.1
SAPELO ISLAND    0100   73     180/ 12     1011.0
WINYAH BAY       0030   73     210/ 11     1010.0S
LAKE MURRAY      0020   75      CALM  /  4 1008.1
ACE BASIN NERRS  0045   71     160/  2     1011.0S


...C-MAN AND BUOY OBSERVATIONS...

STATION/POSITION TIME  TEMP    WIND        PRES    WAVE   SWELL
                       AIR SEA DIR/SP/G            HT/PER HT/PER/DIR
                 (UTC) (F)     (DEG/KT/KT) (MB)    (FT/S) (FT/S/D)
BUOY 41004       0100   73     200/ 10/ 14 1012.1
BUOY 41008       0050   73 72  160/ 14/ 16 1010.6R   3/10   2/100/10
FOLLY BEACH CMAN 0100   73     170/ 15/ 20 1011.8R
CAPERS NS BUOY   0108   76 72  180/ 14/ 19 1011.1R
FRIPP NS BUOY    0108   72 71  190/ 12/ 14 1011.0R
5E ST. MARYS GA  0100      73                N/A     3/ 9   2/110/11


STATION/POSITION TIME  TEMP    WIND        PRES    WAVE   SWELL
                       AIR SEA DIR/SP/G            HT/PER HT/PER/DIR
                 (UTC) (F)     (DEG/KT/KT) (MB)    (FT/S) (FT/S/D)
FRYING PAN BUOY  0100   74     210/ 14/ 16 1011.5
BUOY 41025       0050   74 77  230/ 12/ 16 1011.1R   6/ 9   5/150/ 9
CAPE LOOKOUT NC  0100   72     200/  9/ 11 1011.0R
BUOY 41002       0050   74 75  220/ 12/ 14 1013.8R   6/ 8   5/120/ 8
BUOY 41010       0100   76     180/  8/ 10 1013.8
ST AUGUSTINE FL  0100   74 76  150/ 16/ 17 1012.4R

$$




USA.gov is the U.S. government's official web portal to all federal, state and local government web resources and services.